Flag for China Weather past 2 weeks in Guangzhou, Guangdong, China

Now
81 °F

Thunderstorms. Partly sunny.


Feels Like: 88 °F
Forecast: 77 / 91 °F
Wind: 6 mph from South

Location: Canton Airport

Current Time: Sep 17, 2014 at 1:40:14 PM

Latest Report: Sep 17, 2014 at 1:00 PM


Visibility: 5 mi

Pressure: 29.86 "Hg

Humidity: 94%

Dew point: 79 °F

Location of GuangzhouLocation

Historic Weather in Guangzhou — Graph

°F

Guangzhou temperature yesterday

Maximum temperature yesterday: 84 °F (at 6:00 AM)
Minimum temperature yesterday: 79 °F (at 2:30 PM)
Average temperature yesterday: 81 °F

Past Weeks' High & Low Weather Summary

 TemperatureHumidityPressure
High97 °F (Sep 3, 2:30 PM)100% (Sep 9, 4:30 PM)29.89 "Hg (Sep 9, 4:30 PM)
Low77 °F (Sep 6, 5:30 AM)39% (Sep 4, 2:00 PM)29.50 "Hg (Sep 15, 4:30 PM)
Average86 °F75%29.73 "Hg
* Reported Sep 2 12:00 Noon — Sep 17 12:30 PM, Guangzhou, Weather by CustomWeather, © 2014

Note: Actual official high and low records may vary slightly from our data, if they occured in-between our weather recording intervals... More about our weather records

Advertising

Guangzhou weather history for previous 24 hours

 ConditionsComfort  
Time TempWeatherWind HumidityBarometerVisibility
12:30 PM
Sep 17
82 °FRain showers. Partly sunny.17 mph89%29.83 "Hg4 mi
12:00 PM88 °FSprinkles. Scattered clouds.13 mph75%29.83 "HgN/A
11:30 AM86 °FSprinkles. Scattered clouds.10 mph79%29.83 "HgN/A
11:00 AM88 °FScattered clouds.17 mph75%29.83 "HgN/A
10:30 AM86 °FBroken clouds.13 mph79%29.86 "HgN/A
10:00 AM86 °FBroken clouds.13 mph75%29.86 "HgN/A
9:30 AM84 °FPartly sunny.10 mph79%29.86 "HgN/A
9:00 AM84 °FBroken clouds.10 mph79%29.83 "HgN/A
8:30 AM84 °FBroken clouds.10 mph84%29.83 "HgN/A
8:00 AM82 °FPartly sunny.8 mph84%29.83 "HgN/A
7:30 AM82 °FPartly sunny.6 mph84%29.83 "HgN/A
7:00 AM81 °FPartly sunny.6 mph89%29.80 "HgN/A
6:30 AM81 °FScattered clouds.8 mph89%29.80 "HgN/A
6:00 AM81 °FPassing clouds.8 mph89%29.80 "HgN/A
5:30 AM81 °FOvercast.8 mph89%29.77 "HgN/A
5:00 AM81 °FPartly cloudy.6 mph89%29.77 "HgN/A
4:30 AM81 °FPartly cloudy.6 mph89%29.77 "HgN/A
4:00 AM81 °FPassing clouds.6 mph89%29.77 "HgN/A
3:30 AM79 °FPassing clouds.6 mph94%29.74 "HgN/A
3:00 AM79 °FPassing clouds.6 mph94%29.77 "HgN/A
2:30 AM79 °FPassing clouds.3 mph89%29.77 "HgN/A
2:00 AM79 °FPassing clouds.8 mph94%29.77 "HgN/A
1:30 AM79 °FClear.6 mph89%29.77 "Hg10 mi
1:00 AM79 °FPassing clouds.8 mph89%29.77 "HgN/A
12:30 AM79 °FPassing clouds.10 mph94%29.77 "HgN/A
12:00 AM79 °FPassing clouds.8 mph89%29.77 "HgN/A
11:30 PM
Sep 16
79 °FPassing clouds.8 mph89%29.77 "HgN/A
11:00 PM79 °FPassing clouds.10 mph89%29.77 "HgN/A
10:30 PM79 °FPassing clouds.10 mph89%29.77 "HgN/A
10:00 PM79 °FPassing clouds.10 mph89%29.74 "HgN/A
9:30 PM79 °FOvercast.8 mph89%29.74 "HgN/A
9:00 PM79 °FPassing clouds.8 mph89%29.74 "HgN/A
8:30 PM79 °FPassing clouds.6 mph89%29.74 "HgN/A
8:00 PM79 °FOvercast.8 mph89%29.71 "HgN/A
7:30 PM79 °FLight rain. Overcast.10 mph89%29.71 "HgN/A
7:00 PM81 °FPassing clouds.13 mph84%29.68 "HgN/A
6:30 PM81 °FPassing clouds.13 mph84%29.68 "HgN/A
6:00 PM81 °FPartly sunny.13 mph84%29.65 "HgN/A
5:30 PM81 °FPartly sunny.13 mph89%29.65 "HgN/A
5:00 PM81 °FMore clouds than sun.17 mph84%29.65 "HgN/A
4:30 PM81 °FMore clouds than sun.15 mph89%29.65 "HgN/A
4:00 PM81 °FScattered clouds.13 mph89%29.62 "HgN/A
3:30 PM81 °FSprinkles. Scattered clouds.17 mph89%29.62 "HgN/A
3:00 PM82 °FScattered clouds.15 mph84%29.62 "HgN/A
2:30 PM79 °FSprinkles. Broken clouds.8 mph100%29.62 "HgN/A
2:00 PM81 °FSprinkles. Broken clouds.13 mph89%29.62 "Hg4 mi
1:30 PM82 °FPartly sunny.15 mph84%29.62 "HgN/A
1:00 PM81 °FBroken clouds.17 mph89%29.62 "HgN/A
Weather by CustomWeather, © 2014

See weather overviewHow to use our weather pages